Volver al catálogo

STARLINK-5519

ActivoComunicacionesVLEO
NORAD 57223·PAYLOAD·🇺🇸 United States

Lanzado Jul 7, 2023 desde Vandenberg Space Force Base

Loading…

Próximos Pases (próximas 24 horas)

TLE

ActualizadoSource: CelesTrak SupGP

Época: Sep 14, 2026, 22:13 UTC

1 57223C 23094F   26257.92618056  .00039905  00000+0  14452-2 0  2576
2 57223  43.0018  45.2014 0002057 274.0826 292.2079 15.27562489    17

Sigue STARLINK-5519 en tiempo real con AllMySat

Download on the App Store